Vertical_Velocity
2 -3 -5 9 18 12 -4 -12 -1 -0 2 -2 -5 3 -1 1 1 6 -2 -0 -4 -2 -2 -3 -1 0 0 1 -1 -2 -2 2 0 -1 -2 1 3 -0 0 -0 1 2 2 4 3 2 -2 -1 -2
-2 1 7 3 13 8 -12 -5 -1 -3 -3 -6 -2 -1 2 -13 4 2 -3 -3 -4 -2 -4 -0 -3 -3 -2 -3 1 4 0 -1 3 -3 -1 0 0 2 6 1 1 2 3 6 2 0 0 -2 -2
-5 6 19 4 2 -1 -5 -3 -3 -3 0 -2 2 -2 3 -7 7 5 -7 -2 -3 -2 -2 -3 1 0 -2 -1 -2 -4 3 2 3 4 -1 -1 0 1 -2 7 0 0 1 -1 6 5 -2 0 -1
-2 10 4 18 -5 -14 -4 -5 -0 0 0 -3 3 0 4 -1 -7 -1 -8 0 -3 0 0 -3 -2 -3 -4 -3 -1 0 -4 2 2 3 3 -0 -2 3 4 10 2 3 2 3 3 -0 -0 -1 1
13 13 6 6 -10 -8 -5 -4 3 -0 -2 1 2 -8 -2 7 -7 3 1 2 -1 -1 1 1 -1 1 -1 0 -1 3 2 -0 -0 -0 5 -1 1 -3 1 -1 3 1 3 1 3 1 -3 1 -1
12 7 11 0 -7 -7 -2 1 4 0 -3 -3 7 2 -6 -7 21 -3 5 1 1 -1 -1 -1 -3 1 -0 -1 -0 -1 3 0 0 -3 7 1 12 16 14 3 11 2 1 11 0 -0 -1 -2 1
7 8 -8 -2 -7 -3 -4 -2 3 -2 -0 -11 -3 2 -16 21 -3 29 -3 5 -0 -1 -0 -2 1 -2 0 -1 0 1 -5 2 3 5 -3 6 14 -23 50 36 16 16 17 4 7 -0 -1 -3 1
14 16 4 -5 -3 -21 -6 -1 -2 8 -17 2 4 -3 -12 21 -2 -13 2 4 2 0 1 -3 5 -1 -1 -0 -2 -0 1 -6 2 -0 -1 3 2 7 -4 -32 21 6 -5 19 -1 8 1 0 2
2 18 -0 -13 7 -22 -5 6 -7 -14 12 3 -8 -10 4 1 -0 -4 2 1 5 1 0 -5 3 -0 -2 -3 -3 3 2 -4 -0 1 -1 0 -0 1 -1 -6 -16 40 -20 6 11 7 0 3 4
17 9 -12 -6 -2 -1 -2 7 -2 16 -2 -9 4 8 14 -21 -1 -1 -0 -1 3 1 -1 -8 2 0 -3 -3 -1 -2 3 -1 -1 -3 -2 -1 -2 -1 4 1 -16 -11 -3 9 -16 2 7 12 5
-9 -3 -6 -13 2 3 0 0 -5 5 -3 -5 -4 -6 2 4 5 -5 -0 -3 -6 3 2 6 -0 1 -2 -3 -1 -4 3 -2 -0 2 2 0 5 -1 2 -4 -3 3 1 0 -12 -16 8 5 0
24 -2 3 -9 -2 6 -0 -3 -3 8 -20 -1 -1 1 3 3 -6 -2 -3 0 4 -3 1 -1 -1 0 1 -0 -4 -6 12 -2 1 -2 0 7 3 -1 2 3 -1 1 0 -5 -0 -14 1 10 3
12 -6 1 -3 4 -2 4 -4 -8 -7 -6 -3 1 -3 -1 -1 -7 -2 4 -1 0 12 -3 1 -1 4 -2 -5 -3 -6 2 5 1 2 -1 6 3 -1 2 -4 1 6 -2 -2 -4 4 4 1 2
-4 2 -5 -1 -4 -0 13 -9 36 -25 -7 -2 3 -2 3 0 -2 -0 5 -3 -4 -0 2 2 -1 3 -2 -5 -3 1 0 -4 -1 4 -4 2 5 0 -0 4 1 1 -4 4 -4 13 18 -3 -1
-1 9 -1 -4 -7 -8 9 4 -3 -16 1 2 -0 -3 -1 -1 -3 -5 -1 3 1 3 7 -1 -3 1 -2 -1 -3 0 0 1 -6 4 -1 3 5 1 5 -0 -5 -1 1 3 7 12 9 -1 4
11 14 8 -15 2 -11 23 -18 -11 3 8 -3 -3 -3 -2 -6 -6 0 -1 -3 9 -0 -4 2 -1 0 -0 3 -9 -1 -1 3 -1 -0 -3 3 8 4 2 -0 1 -5 -5 -1 13 6 8 6 19
2 -2 2 -4 -1 -0 18 -9 -11 1 1 -1 1 1 0 1 0 -4 3 8 1 5 -4 4 -1 -1 -1 3 -2 -1 -1 -2 3 2 -0 1 -0 2 -1 -2 -3 2 -3 -2 1 -2 7 1 5
-1 5 -0 -2 -6 1 -1 -8 -7 -7 7 -2 -1 -1 -0 -0 -6 1 -2 5 -2 7 1 3 -1 1 2 -3 2 1 -4 -1 0 -2 -1 5 5 -1 9 -1 -2 1 -0 -1 3 -1 7 1 -3
4 5 2 -8 -8 16 -2 -2 -7 -7 4 1 -2 -3 -4 -1 -2 1 10 -1 2 13 -2 1 -2 -0 1 -4 0 2 -9 2 -1 -1 -0 -2 -2 6 3 10 -6 2 -2 3 5 -1 2 7 -3
2 3 -9 -10 -3 17 -2 -9 -5 -0 -7 -2 -1 -1 -3 1 3 -7 17 4 -6 2 3 -0 -3 1 1 1 -0 -1 -4 -1 -1 0 -0 -2 -2 1 -7 -4 -5 -1 1 2 1 -2 -7 10 3
-3 3 -3 8 -5 -4 12 -7 -2 -9 4 1 -2 -4 2 -1 -3 0 -4 7 -3 4 -1 -1 -1 4 -2 3 1 -4 -1 -2 1 5 3 -4 2 2 1 -3 -4 -4 -0 -5 -8 -5 0 -1 9
5 -2 2 1 9 0 10 -11 -7 -4 -3 1 -2 -1 -1 -3 -1 0 3 11 -4 1 3 4 1 2 0 1 -1 -4 -3 -5 3 -0 -2 -3 1 5 2 0 13 -9 2 -2 -5 1 -10 4 -8
-13 2 2 2 2 13 -13 18 -25 1 -1 -3 -1 -1 -5 -2 -3 -4 -9 24 -8 2 0 0 2 1 0 -1 0 -3 -2 -2 5 -1 -4 -0 -0 2 -1 1 14 5 -0 -2 -1 -2 -2 7 6
-3 3 3 4 6 10 -12 16 -14 1 6 -2 -1 3 6 4 4 -5 1 2 0 3 4 -3 2 2 1 3 -1 -1 -2 1 2 -0 -3 -3 -4 -0 -4 2 12 2 5 -6 -1 -7 3 5 4
7 8 -2 9 11 -11 -2 2 -14 1 2 2 1 -1 -3 -4 -9 -2 -5 11 7 -1 2 -0 4 -4 3 3 -3 -4 -1 1 1 -2 -2 -2 -1 -3 -4 0 7 7 8 -2 -1 2 3 7 2
-4 2 2 3 3 -4 -1 -2 8 3 1 0 4 0 -1 -4 10 7 3 5 -1 7 1 1 5 -3 4 3 -0 -5 -1 4 5 5 2 -2 -2 -1 1 -2 -0 1 7 -1 1 4 1 6 1
-4 6 -14 8 -0 12 -3 -13 17 -1 -1 -2 1 -1 0 -2 -6 4 17 -2 8 7 -1 1 6 -4 2 1 -1 -2 2 3 -1 0 -1 9 4 -2 -4 3 -2 -2 3 -0 -0 -3 -0 -2 -2
11 -1 6 2 2 0 -3 -1 7 -2 0 -1 -3 -0 -1 -0 -3 -7 13 3 4 13 -4 -7 23 -4 -1 5 5 -4 -2 4 -1 -1 -1 -3 -1 -1 2 -1 -2 2 -0 1 -1 -1 -1 0 2
8 3 4 5 4 3 0 7 5 4 4 2 1 1 1 -0 -3 -3 10 23 23 0 -4 0 2 -0 1 -0 1 2 0 5 0 -0 1 -1 5 -1 1 5 1 -1 -0 1 0 -1 2 -5 -6
1 -5 0 6 -6 -1 3 4 2 2 1 1 1 1 2 1 -1 -1 5 1 17 -2 -0 3 4 0 2 -0 -2 -1 1 1 0 1 1 -1 -3 -2 -1 1 0 -0 2 0 2 2 1 -1 -1
Height
1496 1497 1502 1503 1499 1477 1464 1451 1437 1444 1452 1452 1457 1456 1453 1450 1450 1460 1464 1462 1466 1468 1469 1472 1474 1476 1477 1479 1480 1482 1484 1486 1489 1493 1496 1498 1499 1502 1503 1506 1507 1509 1510 1512 1514 1516 1519 1522 1524
1496 1500 1501 1494 1486 1471 1452 1439 1439 1447 1447 1455 1459 1460 1458 1457 1455 1460 1464 1464 1466 1469 1469 1472 1473 1475 1477 1478 1481 1482 1483 1485 1487 1491 1494 1498 1499 1500 1504 1506 1508 1509 1511 1514 1514 1516 1519 1522 1525
1495 1499 1496 1483 1471 1464 1451 1432 1433 1443 1450 1456 1455 1455 1456 1456 1457 1461 1464 1465 1468 1470 1470 1471 1473 1474 1476 1477 1479 1481 1483 1485 1487 1489 1491 1495 1497 1500 1503 1506 1506 1509 1511 1514 1517 1517 1520 1522 1525
1496 1499 1495 1474 1458 1444 1443 1438 1433 1443 1452 1456 1452 1453 1456 1459 1461 1463 1462 1464 1467 1469 1472 1471 1472 1474 1476 1477 1478 1479 1482 1484 1486 1489 1490 1493 1495 1499 1502 1503 1507 1510 1512 1514 1516 1517 1521 1523 1526
1491 1486 1478 1464 1457 1449 1441 1445 1443 1446 1448 1451 1454 1452 1454 1457 1460 1463 1463 1464 1466 1468 1470 1470 1472 1473 1474 1476 1477 1479 1480 1482 1485 1488 1490 1491 1493 1497 1500 1502 1504 1509 1512 1514 1516 1518 1522 1524 1527
1485 1481 1467 1456 1445 1438 1441 1443 1446 1448 1448 1450 1452 1453 1454 1455 1457 1461 1462 1463 1465 1466 1468 1468 1471 1472 1473 1475 1476 1477 1480 1481 1483 1486 1489 1491 1492 1497 1499 1499 1504 1509 1512 1514 1516 1520 1522 1524 1528
1476 1468 1459 1450 1443 1435 1432 1443 1448 1445 1448 1446 1448 1450 1455 1453 1456 1459 1462 1463 1464 1464 1466 1466 1468 1470 1472 1473 1475 1475 1477 1480 1482 1485 1487 1491 1493 1492 1483 1497 1504 1507 1511 1512 1517 1519 1522 1525 1528
1473 1467 1456 1445 1446 1438 1433 1443 1446 1446 1444 1447 1446 1447 1451 1452 1456 1457 1460 1462 1462 1462 1464 1464 1466 1468 1470 1471 1473 1474 1474 1478 1480 1483 1485 1487 1490 1494 1495 1497 1496 1506 1510 1516 1517 1520 1523 1525 1528
1472 1464 1449 1444 1443 1436 1436 1439 1441 1444 1444 1446 1448 1449 1447 1449 1453 1456 1457 1460 1461 1461 1462 1461 1464 1466 1469 1469 1471 1472 1473 1474 1478 1480 1483 1485 1487 1491 1495 1498 1501 1499 1510 1514 1518 1521 1523 1525 1528
1465 1455 1446 1439 1434 1433 1435 1439 1440 1440 1443 1446 1444 1446 1447 1451 1452 1453 1454 1456 1458 1459 1461 1459 1461 1464 1466 1469 1469 1470 1472 1472 1475 1477 1480 1482 1484 1488 1491 1495 1497 1501 1509 1513 1514 1522 1524 1526 1528
1460 1450 1443 1437 1437 1439 1441 1441 1442 1437 1435 1437 1442 1443 1444 1446 1447 1450 1451 1452 1453 1456 1459 1460 1458 1461 1463 1466 1467 1471 1472 1472 1473 1476 1477 1480 1482 1485 1489 1494 1498 1501 1506 1509 1511 1518 1524 1525 1526
1453 1450 1447 1442 1441 1441 1443 1444 1439 1436 1435 1437 1438 1440 1440 1440 1443 1445 1446 1447 1449 1452 1455 1457 1456 1458 1460 1463 1464 1470 1472 1470 1471 1472 1474 1477 1479 1483 1487 1491 1495 1498 1502 1505 1510 1513 1519 1522 1525
1448 1447 1445 1444 1442 1442 1442 1438 1437 1431 1433 1434 1434 1436 1436 1437 1438 1439 1440 1442 1444 1446 1450 1452 1454 1456 1455 1457 1460 1464 1469 1470 1469 1470 1471 1475 1477 1480 1484 1489 1492 1495 1499 1502 1505 1509 1514 1520 1524
1448 1444 1443 1441 1438 1437 1438 1434 1435 1428 1429 1427 1427 1427 1428 1429 1431 1432 1433 1435 1438 1441 1445 1448 1448 1449 1451 1455 1458 1461 1463 1464 1467 1467 1469 1474 1475 1477 1481 1485 1489 1493 1496 1500 1503 1505 1509 1517 1522
1450 1447 1441 1436 1434 1431 1434 1425 1421 1421 1421 1418 1417 1418 1420 1421 1424 1424 1425 1428 1431 1435 1440 1443 1444 1445 1448 1452 1454 1457 1458 1461 1462 1465 1468 1471 1473 1475 1478 1482 1485 1488 1493 1496 1500 1503 1507 1516 1522
1451 1446 1437 1423 1422 1422 1426 1419 1411 1407 1408 1408 1409 1410 1412 1414 1415 1416 1419 1422 1425 1429 1434 1438 1439 1440 1445 1449 1449 1452 1454 1457 1459 1461 1464 1468 1470 1472 1475 1478 1482 1486 1490 1492 1496 1502 1507 1514 1520
1445 1440 1426 1420 1417 1420 1419 1412 1404 1406 1406 1402 1401 1402 1404 1405 1406 1408 1412 1415 1419 1423 1428 1433 1434 1435 1442 1444 1446 1448 1450 1453 1456 1457 1461 1464 1467 1469 1472 1475 1480 1484 1487 1491 1495 1501 1507 1513 1517
1428 1425 1421 1418 1416 1419 1417 1412 1409 1407 1403 1400 1399 1398 1398 1398 1399 1402 1406 1409 1414 1419 1424 1428 1430 1433 1438 1439 1443 1444 1447 1450 1452 1454 1457 1460 1462 1466 1468 1472 1476 1481 1486 1489 1492 1499 1506 1511 1515
1434 1432 1429 1421 1419 1422 1416 1409 1404 1402 1399 1395 1394 1394 1394 1394 1396 1399 1402 1405 1411 1414 1419 1423 1426 1430 1433 1436 1438 1440 1444 1448 1449 1451 1453 1456 1459 1463 1466 1468 1472 1477 1482 1486 1490 1497 1504 1510 1514
1437 1436 1432 1421 1415 1418 1409 1400 1392 1390 1387 1387 1386 1387 1388 1391 1392 1395 1396 1401 1407 1410 1415 1418 1422 1425 1428 1433 1434 1436 1441 1445 1447 1448 1449 1452 1455 1458 1461 1462 1466 1471 1479 1484 1488 1494 1501 1507 1510
1431 1431 1425 1422 1412 1407 1400 1392 1381 1369 1376 1377 1377 1378 1381 1384 1387 1389 1392 1396 1403 1406 1409 1414 1418 1421 1423 1429 1431 1433 1438 1442 1444 1445 1446 1449 1452 1455 1458 1456 1463 1466 1475 1479 1485 1491 1498 1504 1508
1428 1419 1420 1423 1418 1409 1387 1393 1376 1367 1362 1363 1366 1371 1374 1378 1382 1383 1385 1389 1397 1401 1406 1411 1414 1417 1421 1425 1426 1430 1434 1438 1441 1441 1443 1447 1450 1452 1455 1458 1457 1461 1468 1475 1481 1488 1495 1501 1505
1423 1420 1425 1422 1418 1409 1397 1391 1371 1357 1362 1359 1359 1365 1371 1373 1375 1377 1380 1382 1391 1397 1401 1407 1411 1415 1419 1421 1425 1429 1433 1437 1437 1439 1441 1444 1447 1450 1452 1452 1452 1458 1464 1471 1478 1485 1492 1498 1503
1422 1426 1423 1414 1410 1410 1388 1383 1369 1354 1361 1360 1360 1360 1362 1366 1369 1371 1374 1378 1384 1392 1398 1402 1407 1411 1416 1420 1423 1427 1431 1433 1434 1435 1438 1442 1445 1448 1448 1449 1451 1457 1461 1468 1475 1483 1490 1496 1500
1423 1425 1421 1403 1401 1397 1368 1379 1366 1356 1366 1372 1373 1371 1371 1370 1371 1370 1371 1374 1379 1387 1392 1397 1403 1407 1413 1417 1420 1424 1429 1430 1431 1434 1436 1439 1442 1445 1446 1448 1450 1455 1458 1465 1474 1481 1487 1493 1497
1415 1419 1418 1410 1396 1394 1379 1375 1366 1365 1370 1374 1375 1378 1380 1379 1375 1373 1371 1373 1379 1384 1389 1394 1399 1404 1410 1414 1417 1422 1427 1429 1431 1433 1435 1438 1441 1444 1447 1450 1453 1457 1460 1465 1473 1479 1484 1489 1494
1411 1417 1409 1412 1397 1396 1379 1362 1357 1368 1372 1374 1379 1385 1390 1391 1386 1378 1371 1375 1377 1382 1385 1392 1398 1399 1407 1412 1416 1421 1425 1426 1429 1431 1434 1438 1440 1443 1446 1449 1452 1456 1461 1465 1471 1475 1480 1486 1491
1410 1410 1418 1412 1413 1395 1361 1358 1384 1384 1383 1390 1393 1395 1395 1391 1385 1379 1376 1378 1378 1381 1385 1392 1396 1398 1405 1411 1415 1418 1421 1424 1427 1430 1433 1436 1440 1442 1445 1448 1450 1454 1458 1464 1468 1472 1477 1482 1486
1407 1409 1410 1411 1405 1397 1383 1386 1395 1398 1399 1399 1397 1398 1397 1393 1390 1385 1380 1381 1378 1380 1386 1391 1395 1398 1403 1407 1413 1417 1420 1423 1425 1429 1432 1436 1438 1441 1443 1445 1448 1451 1455 1459 1464 1468 1473 1477 1481
1390 1396 1403 1410 1398 1393 1392 1393 1404 1402 1403 1403 1401 1401 1399 1396 1393 1390 1386 1383 1384 1384 1388 1392 1397 1398 1403 1407 1412 1417 1419 1421 1424 1428 1431 1434 1436 1439 1442 1444 1446 1450 1453 1456 1461 1463 1468 1472 1476